Location: Napoli
(40.8330°N, 14.2500°E)
Time: 23:43:19
(UTC+01:00)

ISS - Visible Passes

Search period start: 18 January 2019 00:00
Search period end: 28 January 2019 00:00
Orbit: 404 x 410 km, 51.6° (Epoch: 18 January)

Date Brightness Start Highest point End Pass type
(mag) Time Alt. Az. Time Alt. Az. Time Alt. Az.
20 Jan -0.7 19:34:31 10° SW 19:34:50 12° SW 19:34:50 12° SW visible
21 Jan -2.7 18:43:30 10° SSW 18:46:01 31° SSE 18:46:01 31° SSE visible
22 Jan -1.9 17:52:59 10° S 17:55:17 18° SE 17:57:08 12° E visible
22 Jan -1.4 19:28:20 10° WSW 19:29:52 24° W 19:29:52 24° W visible
23 Jan -3.9 18:36:51 10° SW 18:40:09 87° SE 18:40:53 51° ENE visible
24 Jan -3.2 17:45:39 10° SSW 17:48:47 44° SE 17:51:48 11° ENE visible
24 Jan -1.6 19:22:34 10° W 19:24:32 23° NW 19:24:32 23° NW visible
25 Jan -2.8 18:30:45 10° WSW 18:33:54 40° NNW 18:35:23 25° NNE visible
26 Jan -3.6 17:39:08 10° WSW 17:42:25 71° NW 17:45:43 10° NE visible
26 Jan -1.4 19:17:06 10° WNW 19:18:52 17° NNW 19:18:52 17° NNW visible
27 Jan -1.9 18:25:03 10° WNW 18:27:45 23° NNW 18:29:36 15° NNE visible
